Weather History for KAPY - May, 2013

Change the Weather History Date:

Saturday, May 11, 2013

  Actual Average (KLRD) Record (KLRD)
Temperature  
Mean Temperature 75 °F 92 °F  
Max Temperature 84 °F 92 °F 105 °F (2000)
Min Temperature 66 °F 71 °F 52 °F (1912)
Degree Days  
Heating Degree Days 0 0  
Month to date heating degree days 0  
Since 1 July heating degree days 926  
Cooling Degree Days 10 17  
Month to date cooling degree days 170  
Year to date cooling degree days 770  
Growing Degree Days 25 (Base 50)    
Moisture  
Dew Point 64 °F    
Average Humidity 70    
Maximum Humidity 92    
Minimum Humidity 40    
Precipitation  
Precipitation 1.53 in 0.08 in 2.17 in (1932)
Month to date precipitation 0.86  
Year to date precipitation 5.24  
Sea Level Pressure  
Sea Level Pressure 30.02 in    
Wind  
Wind Speed 7 mph (North)    
Max Wind Speed 18 mph    
Max Gust Speed 34 mph    
Visibility 9 miles    
Events Rain , Thunderstorm    
T = Trace of Precipitation, MM = Missing Value Source: NWS Daily Summary

Daily Weather History Graph

Daily Weather History Graph

Search for Another Location

Airport or City:

Trip Planner

Search our weather history database for the weather conditions in past years. The results will help you decide how hot, cold, wet, or windy it might be!

Date:

Astronomy

May. 11, 2013 Rise Set
Actual Time 6:51 AM CDT 8:15 PM CDT
Civil Twilight 6:26 AM CDT 8:40 PM CDT
Nautical Twilight 5:56 AM CDT 9:10 PM CDT
Astronomical Twilight 5:25 AM CDT 9:41 PM CDT
Moon 8:03 AM CDT (5/11) 9:54 PM CDT (5/11)
Length of Visible Light 14h 14m
Length of Day
13h 24m
Waxing Crescent, 3% of the Moon is Illuminated
May 11
Waxing Crescent
May 17
First Quarter
May 24
Full
May 31
Last Quarter
Jun 8
New

Hourly Weather History & Observations

Time (CDT) Temp. Heat Index Dew Point Humidity Pressure Visibility Wind Dir Wind Speed Gust Speed Precip Events Conditions
12:15 AM 77.4 °F - 67.1 °F 71% 29.98 in 7.0 mi NNW 6.9 mph 17.3 mph N/A Rain , Thunderstorm Light Thunderstorms and Rain
12:35 AM 68.0 °F - 64.4 °F 88% 30.01 in 0.8 mi NNW 18.4 mph 34.5 mph 0.66 in Rain , Thunderstorm Heavy Thunderstorms and Rain
12:55 AM 66.9 °F - 63.9 °F 90% 29.97 in 4.0 mi NNE 11.5 mph 29.9 mph 0.90 in Rain , Thunderstorm Heavy Thunderstorms and Rain
1:15 AM 68.5 °F - 65.5 °F 90% 29.97 in 10.0 mi NNE 9.2 mph - 0.02 in Rain , Thunderstorm Light Thunderstorms and Rain
1:35 AM 68.4 °F - 65.3 °F 90% 29.99 in 7.0 mi NNW 5.8 mph - 0.03 in Rain , Thunderstorm Light Thunderstorms and Rain
1:55 AM 69.8 °F - 67.1 °F 91% 30.00 in 3.0 mi North 8.1 mph - 0.13 in Rain , Thunderstorm Rain
2:15 AM 68.0 °F - 65.1 °F 90% 29.98 in 7.0 mi NNE 6.9 mph - 0.05 in Rain Heavy Rain
2:35 AM 68.7 °F - 66.2 °F 92% 30.03 in 4.0 mi Calm Calm - 0.18 in Rain , Thunderstorm Heavy Thunderstorms and Rain
2:55 AM 68.9 °F - 66.2 °F 91% 30.04 in 4.0 mi Calm Calm - 0.32 in Rain , Thunderstorm Heavy Thunderstorms and Rain
3:15 AM 68.4 °F - 65.8 °F 92% 30.01 in 3.0 mi NE 8.1 mph - 0.14 in Rain , Thunderstorm Thunderstorms and Rain
3:35 AM 68.0 °F - 65.3 °F 91% 30.00 in 10.0 mi NNE 11.5 mph 17.3 mph 0.17 in Rain Rain
3:55 AM 68.0 °F - 64.8 °F 89% 29.99 in 10.0 mi NNE 11.5 mph 16.1 mph 0.17 in   Overcast
4:15 AM 68.0 °F - 65.1 °F 90% 29.97 in 7.0 mi NNE 13.8 mph 20.7 mph 0.01 in Rain Light Rain
4:35 AM 68.9 °F - 65.8 °F 90% 29.96 in 10.0 mi NNE 8.1 mph - 0.01 in   Mostly Cloudy
4:55 AM 69.4 °F - 66.6 °F 91% 29.96 in 10.0 mi NNE 9.2 mph - 0.01 in   Scattered Clouds
5:15 AM 69.8 °F - 66.7 °F 90% 29.94 in 10.0 mi NNE 8.1 mph - N/A   Clear
5:35 AM 70.2 °F - 66.6 °F 88% 29.94 in 10.0 mi Calm Calm - N/A   Clear
5:55 AM 69.4 °F - 66.6 °F 91% 29.97 in 10.0 mi WSW 3.5 mph - N/A   Scattered Clouds
6:15 AM 68.9 °F - 66.2 °F 91% 29.99 in 10.0 mi Calm Calm - N/A   Overcast
6:35 AM 68.9 °F - 66.4 °F 92% 30.01 in 10.0 mi Calm Calm - N/A   Overcast
6:55 AM 68.9 °F - 66.4 °F 92% 30.03 in 10.0 mi Calm Calm - N/A   Overcast
7:15 AM 69.1 °F - 66.6 °F 92% 30.03 in 10.0 mi Calm Calm - N/A   Overcast
7:35 AM 68.9 °F - 66.4 °F 92% 30.04 in 10.0 mi Calm Calm - N/A   Overcast
7:55 AM 69.3 °F - 66.6 °F 91% 30.04 in 10.0 mi Calm Calm - N/A   Overcast
8:15 AM 69.8 °F - 67.1 °F 91% 30.04 in 7.0 mi WNW 3.5 mph - N/A   Overcast
8:35 AM 70.3 °F - 67.5 °F 91% 30.05 in 7.0 mi NW 6.9 mph - N/A   Overcast
8:55 AM 71.6 °F - 66.7 °F 85% 30.04 in 10.0 mi NW 10.4 mph - N/A   Mostly Cloudy
9:15 AM 71.8 °F - 65.7 °F 81% 30.04 in 10.0 mi NW 9.2 mph - N/A   Scattered Clouds
9:35 AM 71.4 °F - 65.3 °F 81% 30.05 in 10.0 mi NW 12.7 mph 16.1 mph N/A   Mostly Cloudy
9:55 AM 71.6 °F - 64.8 °F 79% 30.06 in 10.0 mi NNW 15.0 mph 18.4 mph N/A   Scattered Clouds
10:15 AM 72.0 °F - 64.6 °F 77% 30.07 in 10.0 mi NNW 10.4 mph - N/A   Scattered Clouds
10:35 AM 72.9 °F - 63.1 °F 71% 30.07 in 10.0 mi North 10.4 mph - N/A   Mostly Cloudy
10:55 AM 73.9 °F - 63.3 °F 69% 30.07 in 10.0 mi North 11.5 mph - N/A   Overcast
11:15 AM 74.7 °F - 62.6 °F 66% 30.08 in 10.0 mi NNW 12.7 mph - N/A   Overcast
11:35 AM 73.4 °F - 62.6 °F 69% 30.08 in 10.0 mi North 8.1 mph - N/A   Overcast
11:55 AM 74.3 °F - 62.6 °F 67% 30.08 in 10.0 mi North 10.4 mph - N/A   Overcast
12:15 PM 75.4 °F - 61.9 °F 63% 30.08 in 10.0 mi North 9.2 mph - N/A   Overcast
12:35 PM 75.2 °F - 61.9 °F 63% 30.07 in 10.0 mi NNE 9.2 mph 16.1 mph N/A   Overcast
12:55 PM 75.4 °F - 60.4 °F 60% 30.07 in 10.0 mi NNE 6.9 mph - N/A   Overcast
1:15 PM 76.8 °F - 60.8 °F 58% 30.07 in 10.0 mi NNE 8.1 mph - N/A   Overcast
1:35 PM 76.8 °F - 60.6 °F 57% 30.07 in 10.0 mi NNE 8.1 mph - N/A   Overcast
1:55 PM 77.7 °F - 59.9 °F 54% 30.06 in 10.0 mi NE 6.9 mph - N/A   Overcast
2:15 PM 79.7 °F - 60.3 °F 51% 30.06 in 10.0 mi Calm Calm - N/A   Mostly Cloudy
2:35 PM 78.8 °F - 59.7 °F 52% 30.05 in 10.0 mi NNE 5.8 mph - N/A   Mostly Cloudy
2:55 PM 80.4 °F 81.1 °F 59.9 °F 49% 30.04 in 10.0 mi NNW 3.5 mph - N/A   Overcast
3:15 PM 79.5 °F - 61.0 °F 53% 30.04 in 10.0 mi NNW 4.6 mph - N/A   Overcast
3:35 PM 81.1 °F 81.8 °F 60.1 °F 49% 30.02 in 10.0 mi NW 4.6 mph - N/A   Scattered Clouds
4:15 PM 81.5 °F 82.0 °F 60.1 °F 48% 30.01 in 10.0 mi North 3.5 mph - N/A   Overcast
4:35 PM 82.2 °F 82.3 °F 58.8 °F 45% 30.00 in 10.0 mi North 3.5 mph - N/A   Overcast
4:55 PM 83.5 °F 83.4 °F 59.7 °F 44% 29.99 in 10.0 mi NNW 5.8 mph - N/A   Mostly Cloudy
5:15 PM 83.5 °F 83.2 °F 58.8 °F 43% 29.99 in 10.0 mi NNE 6.9 mph - N/A   Scattered Clouds
5:35 PM 82.9 °F 82.7 °F 58.5 °F 43% 29.99 in 10.0 mi East 3.5 mph - N/A   Scattered Clouds
5:55 PM 84.2 °F 83.8 °F 59.0 °F 42% 29.98 in 10.0 mi North 3.5 mph - N/A   Mostly Cloudy
6:15 PM 84.6 °F 83.9 °F 57.9 °F 40% 29.98 in 10.0 mi East 3.5 mph - N/A   Scattered Clouds
6:35 PM 82.9 °F 82.7 °F 58.5 °F 43% 29.99 in 10.0 mi NNE 3.5 mph - N/A   Mostly Cloudy
6:55 PM 83.5 °F 83.1 °F 57.9 °F 42% 29.98 in 10.0 mi NE 3.5 mph - N/A   Overcast
7:15 PM 82.9 °F 82.6 °F 57.9 °F 42% 29.98 in 10.0 mi Calm Calm - N/A   Mostly Cloudy
7:35 PM 82.8 °F 82.5 °F 58.1 °F 43% 29.98 in 10.0 mi ENE 3.5 mph - N/A   Overcast
7:55 PM 81.7 °F 82.3 °F 60.8 °F 49% 29.99 in 10.0 mi ESE 3.5 mph - N/A   Mostly Cloudy
8:15 PM 80.4 °F 81.7 °F 63.0 °F 55% 30.01 in 10.0 mi Calm Calm - N/A   Mostly Cloudy
8:35 PM 79.7 °F - 66.4 °F 64% 30.01 in 10.0 mi Calm Calm - N/A   Mostly Cloudy
8:55 PM 79.3 °F - 66.4 °F 64% 30.02 in 10.0 mi Calm Calm - N/A   Overcast
9:15 PM 78.8 °F - 66.4 °F 66% 30.02 in 10.0 mi Calm Calm - N/A Rain Light Rain
9:35 PM 78.4 °F - 68.4 °F 71% 30.03 in 10.0 mi Calm Calm - N/A   Overcast
9:55 PM 78.1 °F - 67.6 °F 70% 30.04 in 10.0 mi Calm Calm - N/A   Mostly Cloudy
10:15 PM 77.9 °F - 64.2 °F 63% 30.05 in 10.0 mi Calm Calm - N/A   Scattered Clouds
10:35 PM 77.4 °F - 64.8 °F 65% 30.06 in 10.0 mi Calm Calm - N/A   Mostly Cloudy
10:55 PM 77.2 °F - 65.3 °F 67% 30.07 in 10.0 mi West 3.5 mph - N/A   Overcast
11:15 PM 76.8 °F - 62.6 °F 61% 30.08 in 10.0 mi NNW 5.8 mph - N/A   Overcast
11:35 PM 74.8 °F - 61.5 °F 63% 30.07 in 10.0 mi North 10.4 mph 19.6 mph N/A Rain Light Rain
11:55 PM 72.9 °F - 62.1 °F 69% 30.08 in 10.0 mi North 10.4 mph 16.1 mph N/A   Mostly Cloudy